Location: Adamstown South Public School
(32.9318°S, 151.7012°E)
Time: 20:14:58
(UTC+00:00)

Okean-O - Pass Details

Date: 07 June 2020
Orbit: 639 x 641 km, 98.2° (Epoch: 05 July)

Event Time Altitude Azimuth Distance (km) Brightness Sun altitude
Exits shadow 08:11:47 21° 71° (ENE) 1,439 4.0 -16.1°
Drops below altitude 10° 08:14:34 10° 33° (NNE) 2,035 5.0 -16.6°
Sets 08:17:10 0° 17° (NNE) 2,935 6.0 -17.2°
